Naval Air Station Jrb Fort Worth, TX

1:24 AM CDT on September 27, 2016 (GMT -0500)
Fort Worth Naval Air Station Jrb

Weather History for KNFW - January, 2013

Change the Weather History Date:

Friday, January 25, 2013

  Actual Average Record
Temperature  
Mean Temperature 48 °F -  
Max Temperature 51 °F 56 °F 68 °F (2014)
Min Temperature 44 °F 36 °F 30 °F (2014)
Degree Days  
Heating Degree Days 18    
Moisture  
Dew Point 38 °F    
Average Humidity 72    
Maximum Humidity 89    
Minimum Humidity 61    
Precipitation  
Precipitation 0.00 in - - ()
Sea Level Pressure  
Sea Level Pressure 30.15 in    
Wind  
Wind Speed 7 mph (NNW)    
Max Wind Speed 13 mph    
Max Gust Speed -    
Visibility 7 miles    
Events      
Averages and records for this station are not official NWS values.
T = Trace of Precipitation, MM = Missing Value Source: NWS Daily Summary

Daily Weather History Graph

Daily Weather History Graph

Search for Another Location

Airport or City:

Trip Planner

Search our weather history database for the weather conditions in past years. The results will help you decide how hot, cold, wet, or windy it might be!

Date:

Astronomy

Jan. 25, 2013 Rise Set
Actual Time 7:28 AM CST 5:56 PM CST
Civil Twilight 7:02 AM CST 6:22 PM CST
Nautical Twilight 6:32 AM CST 6:52 PM CST
Astronomical Twilight 6:03 AM CST 7:21 PM CST
Moon 4:54 PM CST (1/25) 6:08 AM CST (1/25)
Length of Visible Light 11h 19m
Length of Day
10h 27m
Waxing Gibbous, 98% of the Moon is Illuminated
Jan 25
Waxing Gibbous
Jan 26
Full
Feb 3
Last Quarter
Feb 10
New
Feb 17
First Quarter

Hourly Weather History & Observations

Time (CST) Temp. Windchill Dew Point Humidity Pressure Visibility Wind Dir Wind Speed Gust Speed Precip Events Conditions
12:52 AM 50.0 °F - 37.0 °F 61% 30.04 in 9.0 mi West 3.5 mph - N/A   Clear
1:52 AM 48.9 °F - 37.9 °F 66% 30.06 in 9.0 mi NW 11.5 mph - N/A   Clear
2:52 AM 46.9 °F - 36.0 °F 66% 30.06 in 9.0 mi NW 4.6 mph - N/A   Clear
3:52 AM 46.0 °F 43.1 °F 37.0 °F 71% 30.05 in 8.0 mi NW 5.8 mph - N/A   Clear
4:52 AM 45.0 °F 41.8 °F 37.9 °F 76% 30.06 in 7.0 mi NW 5.8 mph - N/A   Scattered Clouds
5:09 AM 44.6 °F 42.2 °F 37.4 °F 76% 30.11 in 7.0 mi NW 4.6 mph - N/A   Mostly Cloudy
5:18 AM 44.6 °F 40.2 °F 37.4 °F 76% 30.12 in 7.0 mi NW 8.1 mph - N/A   Scattered Clouds
5:38 AM 46.4 °F 43.5 °F 39.2 °F 76% 30.12 in 6.0 mi NNW 5.8 mph - N/A   Haze
5:52 AM 46.0 °F 41.9 °F 39.0 °F 76% 30.08 in 6.0 mi NNW 8.1 mph - N/A   Haze
5:59 AM 46.4 °F 41.9 °F 39.2 °F 76% 30.14 in 6.0 mi NNW 9.2 mph - N/A   Haze
6:52 AM 45.0 °F 38.9 °F 39.9 °F 82% 30.12 in 4.0 mi NNW 12.7 mph - N/A   Haze
7:34 AM 44.6 °F 39.7 °F 41.0 °F 87% 30.19 in 2.5 mi North 9.2 mph - N/A   Overcast
7:52 AM 45.0 °F 39.7 °F 41.0 °F 86% 30.14 in 1.8 mi North 10.4 mph - N/A   Overcast
8:21 AM 44.6 °F 39.7 °F 41.0 °F 87% 30.20 in 0.5 mi North 9.2 mph - N/A   Overcast
8:52 AM 44.1 °F 39.0 °F 41.0 °F 89% 30.17 in 0.8 mi North 9.2 mph - N/A   Overcast
9:34 AM 44.6 °F 39.7 °F 39.2 °F 81% 30.24 in 1.2 mi North 9.2 mph - N/A   Overcast
9:52 AM 44.1 °F 39.5 °F 39.9 °F 85% 30.19 in 1.8 mi North 8.1 mph - N/A   Overcast
10:09 AM 44.6 °F 38.4 °F 39.2 °F 81% 30.25 in 4.0 mi North 12.7 mph - N/A   Haze
10:52 AM 46.0 °F 41.0 °F 39.9 °F 79% 30.20 in 5.0 mi North 10.4 mph - N/A   Haze
11:52 AM 45.0 °F 39.7 °F 39.0 °F 80% 30.19 in 5.0 mi North 10.4 mph - N/A   Haze
12:52 PM 46.9 °F - 37.9 °F 71% 30.17 in 9.0 mi NNE 6.9 mph - N/A   Overcast
1:10 PM 46.4 °F 41.9 °F 37.4 °F 71% 30.21 in 10.0 mi NNW 9.2 mph - N/A   Overcast
1:52 PM 48.0 °F - 37.9 °F 68% 30.16 in 10.0 mi North 10.4 mph - N/A   Overcast
2:39 PM 48.2 °F - 37.4 °F 66% 30.21 in 10.0 mi NW 10.4 mph - N/A   Overcast
2:52 PM 48.9 °F - 37.9 °F 66% 30.15 in 10.0 mi NW 10.4 mph - N/A   Overcast
3:52 PM 48.9 °F - 37.9 °F 66% 30.16 in 10.0 mi North 10.4 mph - N/A   Overcast
4:10 PM 50.0 °F - 37.4 °F 62% 30.21 in 10.0 mi North 8.1 mph - N/A   Overcast
4:52 PM 51.1 °F - 37.9 °F 61% 30.15 in 10.0 mi North 6.9 mph - N/A   Overcast
5:52 PM 50.0 °F - 37.0 °F 61% 30.15 in 9.0 mi North 6.9 mph - N/A   Mostly Cloudy
6:52 PM 48.9 °F - 36.0 °F 61% 30.15 in 10.0 mi ENE 5.8 mph - N/A   Scattered Clouds
7:52 PM 48.0 °F - 36.0 °F 63% 30.16 in 10.0 mi Calm Calm - N/A   Scattered Clouds
8:52 PM 48.0 °F - 36.0 °F 63% 30.16 in 10.0 mi NE 3.5 mph - N/A   Mostly Cloudy
9:52 PM 48.0 °F - 36.0 °F 63% 30.17 in 10.0 mi Calm Calm - N/A   Mostly Cloudy
10:48 PM 48.2 °F - 35.6 °F 62% 30.23 in 10.0 mi NNE 5.8 mph - N/A   Overcast
10:52 PM 48.0 °F - 35.1 °F 61% 30.18 in 10.0 mi North 3.5 mph - N/A   Overcast
11:52 PM 46.9 °F - 35.1 °F 63% 30.21 in 10.0 mi NNW 4.6 mph - N/A   Overcast